OTBD

Doha International Airport

Airport
ICAO code
OTBD
IATA Code
DOH
Summary
ICAO Region
MID
ICAO Territory
Location

Doha, Qatar

Serving
Doha
Elevation
35 ft
Coordinates
25° 15' 40" N , 51° 33' 54" E
KCC
Metar
OTBD 140630Z AUTO 30006KT 260V340 CAVOK 43/05 Q1000 NOSIG

Doha International Airport is an airport in Doha, Qatar. It was Qatar's commercial international airport until Hamad International Airport opened on 30 April 2014. While all scheduled commercial traffic ceased, the airport site and existing runway is still used.

Climatology

Hot Desert Climate (Köppen climate classification BWh)

Runways

Designator Length Width Surface Rops
15/33 4572 46 ASP Yes/Yes

Airport map

Aerial View

SKYbrary Partners:

Safety knowledge contributed by: